Location: *
(44.1392°N, 4.8079°E)
Time: 07:20:32
(UTC+00:00)

ADEOS II - Pass Details

Date: 21 June 2021
Orbit: 799 x 800 km, 98.6° (Epoch: 01 August)

Event Time Altitude Azimuth Distance (km) Brightness Sun altitude
Rises 00:59:31 0° 24° (NNE) 3,320 6.9 -20.2°
Reaches altitude 10° 01:02:12 10° 36° (NE) 2,384 5.6 -20.0°
Maximum altitude 01:06:40 28° 95° (E) 1,479 3.6 -19.7°
Enters shadow 01:09:53 16° 143° (SE) 1,996 3.8 -19.5°
